GFSNE_500_spd_102.txt.gz
Wind_Speed
34 24 20 24 28 26 26 23 20 19 22 21 20 19 18 20 22 23 21 20 20 21 23 26 26 23 24 26 25 25 25 26 29 31 33 34 36 38
25 14 18 21 23 19 20 22 21 23 20 23 18 18 18 17 18 19 23 23 25 25 26 23 23 24 26 26 28 29 29 31 33 34 36 37 38 40
12 18 21 23 22 21 24 26 24 25 21 23 18 15 17 21 21 19 19 23 25 24 25 26 26 27 28 29 30 32 34 36 38 39 40 42 44 46
20 25 27 25 22 21 21 21 21 20 16 17 19 21 22 24 23 23 24 23 24 27 29 31 33 33 34 35 36 38 39 40 41 41 42 44 46 49
23 21 27 23 21 22 23 21 21 20 20 20 23 26 26 25 25 25 27 28 29 29 29 28 30 33 37 39 39 40 40 41 41 42 44 46 49 52
22 23 26 25 27 26 25 24 24 23 24 23 23 25 24 27 28 28 30 32 32 32 32 33 34 36 37 38 40 41 42 45 48 50 53 54 54 56
25 27 28 26 28 26 24 26 27 27 29 28 26 28 27 29 32 33 35 35 35 36 36 38 40 44 47 49 48 50 52 50 51 54 58 62 66 66
30 29 30 32 30 30 30 31 33 34 33 34 34 33 32 35 33 35 38 40 40 43 44 48 52 49 50 55 54 52 54 59 59 60 62 64 62 66
35 35 37 38 37 37 36 37 37 37 37 38 38 40 40 40 38 41 47 42 43 52 52 53 63 59 58 62 52 61 64 66 66 67 70 70 73 73
41 42 43 43 42 41 41 40 40 39 39 42 42 41 42 42 46 47 47 51 55 55 55 57 61 63 64 64 66 65 63 65 68 70 71 71 72 75
43 38 37 34 33 33 35 40 41 40 38 40 45 45 45 47 48 50 51 53 56 58 59 61 63 64 65 65 66 66 67 67 69 71 72 74 75 77
47 47 42 36 36 34 36 37 38 46 46 47 53 52 52 52 53 54 56 57 59 61 62 64 64 65 66 68 69 70 71 72 74 76 77 78 79 80
46 43 44 45 46 47 49 52 53 51 52 53 54 55 55 55 56 57 58 59 62 63 65 68 69 70 71 73 75 76 76 77 80 82 83 84 85 85
50 54 55 55 53 52 52 53 53 54 55 56 56 56 57 59 60 61 62 63 65 66 68 70 72 73 74 76 78 80 82 84 85 86 86 86 84 81
62 59 60 61 59 56 55 53 54 54 53 54 56 57 59 61 64 65 68 69 70 71 73 75 76 78 79 82 84 86 87 87 86 85 84 83 81 79
70 67 65 65 61 58 59 57 50 51 54 57 60 62 64 65 65 67 69 70 72 73 75 78 80 83 85 87 88 88 88 88 88 87 83 81 76 71
66 57 55 57 57 57 54 52 54 56 59 61 62 63 64 65 67 69 71 73 76 78 80 83 85 87 89 89 89 90 88 85 82 75 69 67 66 65
39 40 42 46 46 47 51 54 56 58 60 61 62 64 66 68 71 73 76 78 80 82 83 85 87 87 87 84 78 72 67 64 62 64 63 64 65 66
40 43 45 47 50 52 54 55 57 59 61 63 66 69 71 73 76 79 81 82 82 82 83 83 78 68 63 61 61 62 62 62 63 63 65 66 67 67
48 50 51 52 54 56 58 59 62 65 67 70 72 74 76 78 79 81 81 81 80 77 73 67 65 65 65 65 66 67 67 67 67 67 68 68 69 69
53 54 55 58 61 63 65 68 71 72 74 75 76 77 78 80 80 79 77 74 72 71 69 69 69 70 70 71 70 70 70 70 70 69 70 69 69 68
61 63 66 68 70 72 72 73 74 75 76 77 78 77 74 73 72 72 71 70 69 69 69 70 71 71 71 71 71 71 70 71 71 71 69 66 64 61
68 69 70 71 71 72 74 75 75 75 73 72 71 71 71 72 71 70 70 70 70 71 72 72 72 73 73 72 72 71 70 68 67 65 62 58 54 50

GFSNE_500_spd_105.txt.gz
Wind_Speed
36 35 40 40 38 32 30 28 30 30 29 30 30 30 26 24 25 24 23 25 23 21 21 20 21 24 25 26 27 30 31 30 29 30 29 29 30 31
35 38 38 32 32 24 29 32 32 31 26 26 28 26 26 27 28 25 21 18 21 24 24 24 27 26 24 24 25 26 27 28 29 31 31 32 34 35
28 29 33 23 30 31 29 29 25 26 27 27 28 27 29 29 26 23 22 20 18 22 24 25 25 26 28 29 30 31 32 32 33 35 36 36 36 37
20 26 24 22 24 26 27 27 28 29 28 30 31 28 28 28 26 23 22 21 23 25 27 28 29 31 32 32 31 31 31 32 34 36 36 36 36 38
26 23 24 23 28 31 29 30 29 29 27 27 28 25 27 29 27 25 27 27 26 27 27 28 31 32 34 34 34 35 35 35 36 38 39 42 44 44
27 26 28 31 26 29 30 29 27 26 26 25 27 29 28 29 28 26 29 30 28 28 31 32 33 34 36 36 37 38 42 46 48 53 53 51 54 53
26 28 29 29 31 34 30 29 30 30 31 30 28 30 31 32 32 33 31 32 32 32 32 34 35 39 40 42 44 47 50 50 52 51 52 60 59 58
30 31 32 34 31 32 30 32 32 32 33 34 34 35 37 36 36 37 38 37 38 39 39 43 44 43 44 48 50 50 55 63 64 59 58 61 63 70
33 33 33 33 33 34 35 36 38 39 39 39 39 40 39 39 41 39 41 41 43 45 49 48 47 49 52 57 56 55 58 60 63 63 64 66 68 70
41 40 40 39 39 41 42 43 44 45 45 45 45 43 41 40 41 42 42 43 48 51 51 52 54 56 58 59 59 59 60 62 63 63 64 67 69 71
46 45 45 44 45 47 47 48 48 46 46 45 43 43 41 39 40 40 46 51 51 52 53 53 54 55 58 59 61 62 64 65 67 68 70 71 73 74
53 53 50 48 47 48 47 42 41 42 40 41 39 45 48 52 50 51 53 58 56 57 56 57 58 60 62 63 65 67 68 69 71 73 74 76 77 79
57 60 59 55 49 50 51 47 41 42 39 41 49 49 50 52 56 57 58 60 59 58 59 60 63 65 66 67 68 70 71 73 76 77 78 80 83 86
67 65 53 50 52 56 53 52 53 54 58 58 56 59 61 60 60 60 60 60 60 61 62 64 67 68 69 69 70 73 75 77 80 82 84 86 88 90
69 56 58 60 58 59 59 55 60 62 62 62 63 64 64 65 65 64 62 62 62 64 67 68 69 69 70 72 74 77 79 82 85 86 89 90 90 90
58 56 58 60 66 64 66 67 72 67 64 64 65 64 66 65 68 65 63 63 65 68 69 70 71 72 74 77 80 82 85 86 87 88 88 82 75 69
68 70 71 77 77 71 74 75 78 71 64 56 55 59 54 54 58 61 63 65 67 69 71 73 75 78 80 82 85 85 86 86 84 79 71 68 66 67
35 40 42 45 47 50 51 52 48 47 46 44 46 50 54 59 62 64 66 68 70 73 76 78 80 82 84 85 85 84 84 80 74 70 69 70 71 71
33 34 35 37 39 41 42 43 45 46 49 51 54 58 60 63 66 68 70 73 75 77 81 82 83 84 85 84 81 78 75 73 73 73 74 73 72 72
39 40 42 43 44 45 47 49 52 54 57 60 62 63 65 69 72 74 76 79 80 81 82 83 83 81 78 76 75 74 72 73 73 74 75 76 74 74
46 48 49 50 51 53 54 56 57 60 62 65 67 71 74 77 78 80 81 82 82 83 82 81 79 77 75 75 74 75 75 76 76 76 76 75 75 75
53 53 54 55 57 58 60 64 66 69 71 73 76 78 79 80 81 82 82 82 81 80 79 77 75 74 74 74 76 77 77 78 78 77 76 74 71 67
61 61 63 64 66 68 70 72 73 75 76 78 78 78 79 79 79 79 78 76 75 74 74 75 76 77 78 79 80 79 78 77 77 75 70 65 61 55

GFSNE_500_spd_108.txt.gz
Wind_Speed
33 35 38 38 31 34 31 35 36 31 32 36 35 34 34 35 38 38 35 33 30 30 30 29 28 28 26 26 27 27 25 25 26 27 26 26 27 28
29 34 38 38 38 35 35 35 36 30 30 29 30 31 34 37 39 38 32 31 31 31 28 31 32 33 31 30 30 28 26 26 26 27 28 29 31 33
24 30 35 37 36 38 37 38 33 30 33 35 37 37 36 35 35 33 32 32 32 30 31 29 31 32 33 30 28 28 30 30 30 30 30 31 32 33
23 30 35 34 35 36 31 30 37 34 38 39 36 35 36 34 34 35 32 32 32 31 30 31 28 29 29 30 30 30 30 31 31 32 32 33 34 36
23 24 24 29 32 30 27 31 36 36 36 34 34 34 35 36 37 35 33 32 33 36 34 31 29 30 31 31 33 34 32 34 34 35 37 39 42 43
25 26 23 28 28 28 26 27 31 31 33 33 35 38 38 36 36 34 34 35 36 35 33 32 33 33 34 37 37 37 39 37 43 44 47 48 49 50
26 28 29 30 31 34 35 32 32 33 34 33 31 34 35 35 35 37 36 37 36 37 37 37 36 37 30 40 40 36 45 48 48 48 51 54 55 59
28 29 31 34 35 36 37 35 38 37 36 34 34 37 40 39 38 37 37 38 40 39 41 41 42 43 45 46 47 48 50 52 53 55 58 59 59 60
31 31 32 32 33 36 37 37 38 39 38 39 38 38 38 39 40 39 41 42 43 44 45 45 47 47 48 50 54 55 56 56 60 62 64 63 64 65
37 37 37 37 36 36 36 38 39 40 41 41 42 43 43 43 44 44 46 48 48 47 48 51 49 49 55 57 58 59 59 60 61 63 64 65 66 67
42 43 42 42 42 43 43 46 47 47 46 47 48 49 49 49 49 50 52 53 49 45 50 53 57 59 56 59 59 60 62 62 63 65 68 69 70 72
47 46 46 47 48 47 49 52 52 52 52 52 54 55 55 54 54 54 52 48 49 57 56 58 62 63 62 61 63 64 65 65 67 70 72 73 73 74
54 53 60 54 54 53 54 58 58 60 56 53 54 54 51 51 48 52 52 56 62 61 64 59 61 64 64 65 64 67 68 70 73 74 75 75 76 78
55 55 52 61 62 58 61 64 69 65 61 56 58 54 60 61 64 67 64 63 63 62 60 60 62 65 66 68 71 73 72 73 73 75 77 79 81 83
59 59 66 67 69 65 69 71 65 55 59 65 64 64 70 70 66 63 66 69 70 71 68 68 70 70 69 67 68 70 71 73 75 78 81 83 86 88
74 74 76 72 72 68 64 68 65 70 69 68 68 71 70 75 77 73 74 79 79 71 68 67 63 64 66 67 69 71 74 76 79 82 85 87 89 90
65 71 75 78 73 73 74 73 73 78 73 77 77 77 82 79 81 80 76 69 69 68 61 58 61 65 68 69 72 75 79 83 86 88 89 89 87 84
52 56 61 60 68 77 72 72 74 67 66 70 68 65 66 65 64 63 62 61 58 57 58 61 66 69 72 75 79 83 86 87 87 87 86 84 82 79
33 34 36 38 40 40 41 43 47 47 49 50 50 50 49 51 52 54 54 56 60 62 66 70 72 74 78 82 85 85 87 88 88 85 84 80 79 79
43 43 42 42 41 42 43 43 44 44 45 46 47 50 53 55 57 60 62 64 65 68 72 74 78 81 83 84 85 87 85 83 81 79 79 81 82 84
45 45 44 44 44 45 46 48 49 49 50 52 54 57 59 61 62 64 66 68 71 74 78 80 82 84 84 83 81 79 78 78 79 80 83 85 85 83
49 50 50 50 50 51 52 53 54 55 56 58 60 62 65 67 68 70 74 76 79 81 81 81 79 78 76 76 77 78 81 83 85 86 84 84 82 80
53 54 54 55 56 57 58 59 60 62 63 65 67 69 71 72 73 75 76 78 77 76 75 74 74 76 78 80 81 82 83 85 86 86 83 79 76 73

GFSNE_500_spd_111.txt.gz
Wind_Speed
29 30 27 31 35 37 38 38 36 38 37 33 35 35 43 45 46 43 38 39 38 38 39 38 34 33 34 35 31 30 29 29 27 24 23 25 26 26
28 27 29 31 31 34 37 35 36 34 37 31 34 37 39 40 41 40 38 38 39 39 38 35 34 35 36 35 34 34 31 31 29 28 28 30 31 30
29 29 28 26 36 33 38 36 34 32 30 33 33 31 31 33 37 35 36 37 39 40 37 37 36 36 35 33 32 35 35 32 31 32 32 32 31 32
28 28 23 23 28 37 37 37 38 31 35 36 31 33 33 34 38 39 38 38 38 38 40 38 37 35 34 31 30 34 33 34 32 32 34 35 35 35
29 26 24 20 30 32 35 39 40 37 40 37 33 35 39 40 40 39 37 35 36 40 41 40 37 37 36 36 36 35 34 33 33 37 36 37 39 40
27 27 27 24 23 28 33 36 33 34 31 34 35 32 32 33 34 35 37 38 42 44 41 40 39 39 40 38 35 34 35 35 36 38 39 42 43 49
27 28 29 25 25 26 27 35 37 34 30 28 29 29 30 34 36 39 41 42 45 43 41 41 42 42 41 39 38 37 35 34 41 43 46 50 52 55
30 29 29 30 29 28 29 28 31 30 32 31 32 35 35 39 39 39 41 42 45 43 44 45 44 42 42 42 42 44 47 49 52 53 53 56 58 57
32 32 33 32 32 33 32 36 37 35 34 35 38 43 37 38 43 42 42 43 44 46 46 45 45 45 46 48 49 49 51 53 51 54 58 59 58 59
36 34 35 36 35 34 35 36 38 40 44 41 41 43 42 42 47 47 45 44 45 47 48 50 48 50 51 52 53 55 56 55 55 61 59 59 61 63
40 39 38 37 38 39 41 41 41 42 44 45 45 45 45 45 46 47 49 49 50 53 54 54 52 53 55 54 58 57 57 61 62 67 66 63 65 66
44 43 42 40 39 39 41 46 47 48 49 49 51 51 50 50 51 51 51 54 59 61 62 62 63 60 59 56 64 69 70 68 68 69 70 69 72 74
52 49 47 47 46 48 47 50 51 49 54 55 55 53 55 55 56 57 57 56 60 60 60 63 62 64 65 68 72 73 73 71 68 68 70 72 74 76
58 53 50 50 51 52 51 47 50 57 57 57 60 59 62 65 67 68 61 60 62 63 61 65 69 67 69 73 76 77 75 75 71 71 70 70 70 72
68 61 57 53 58 58 48 49 55 53 64 63 63 63 64 68 74 65 66 65 68 69 67 71 75 76 78 81 81 83 77 71 74 72 69 67 69 72
55 51 61 61 59 62 63 71 63 61 66 74 76 81 81 75 73 68 69 74 75 75 77 77 84 84 85 83 73 70 70 70 69 66 67 69 73 76
60 57 66 63 66 68 68 73 71 71 77 80 78 80 76 76 79 77 72 80 81 80 82 84 85 80 75 70 67 63 62 63 64 67 71 75 78 81
39 49 54 57 63 67 68 67 70 70 71 73 76 79 75 69 69 75 78 81 72 71 70 66 64 64 62 60 59 60 64 67 69 73 77 80 83 86
43 41 39 38 40 43 47 53 58 64 67 71 71 76 75 71 69 63 63 63 62 61 59 59 58 58 59 61 63 66 70 74 77 79 82 84 82 81
45 45 48 46 44 45 46 46 46 45 47 48 49 50 51 53 53 54 54 54 56 56 57 59 60 62 64 66 69 73 75 77 81 82 83 81 80 79
48 49 49 48 47 46 47 47 48 49 50 50 51 52 53 53 53 53 54 55 57 59 61 63 65 67 68 71 73 76 79 80 79 77 77 79 81 84
50 49 49 49 49 49 49 49 50 50 50 50 50 51 53 54 55 56 57 59 61 62 64 66 68 71 72 73 74 75 76 79 80 80 80 82 85 87
53 53 54 54 54 54 54 54 54 54 55 55 55 56 57 58 59 60 61 62 64 65 67 69 71 73 74 75 76 76 78 80 81 84 85 84 85 85

GFSNE_500_spd_114.txt.gz
Wind_Speed
30 28 28 27 29 27 30 30 32 35 32 33 31 33 34 36 33 36 46 44 43 38 37 37 39 39 38 37 35 33 33 33 30 27 29 29 27 26
33 29 29 27 30 31 32 37 37 37 35 34 35 36 37 36 33 35 41 44 40 41 37 40 42 41 39 37 33 33 33 33 33 31 33 31 30 30
35 32 30 26 30 32 30 31 36 40 40 37 37 35 38 36 34 34 35 39 41 40 42 40 39 39 36 33 32 34 34 34 32 32 34 35 34 33
36 35 32 28 25 31 31 31 34 34 36 32 32 33 34 36 36 33 31 35 37 38 37 39 40 36 34 34 34 36 36 32 32 33 35 37 37 35
37 36 36 29 25 32 28 29 29 34 38 43 36 34 36 34 32 30 31 32 33 37 39 39 37 35 36 37 36 37 37 37 35 37 38 39 37 37
39 36 38 30 26 33 30 25 28 33 38 43 40 34 39 35 33 36 37 33 35 36 34 35 37 38 40 41 38 39 39 37 37 37 38 41 40 38
41 37 39 33 30 31 30 27 26 29 36 38 30 33 31 33 29 25 30 30 32 35 36 38 40 41 41 42 41 41 41 38 39 39 39 41 45 47
42 40 39 36 33 31 30 29 28 27 27 32 34 33 28 26 25 32 33 34 34 37 42 43 42 43 45 44 43 44 42 42 44 44 45 49 53 56
45 43 41 39 36 33 33 32 29 26 30 27 29 30 28 27 32 36 39 39 38 37 41 42 42 43 45 46 46 47 46 48 49 49 56 57 57 58
48 46 44 41 41 37 38 35 33 32 33 31 33 37 40 40 35 41 43 42 42 45 44 46 45 47 47 48 49 51 53 52 54 53 58 61 61 62
52 52 48 45 45 41 38 38 37 40 39 35 39 37 42 37 38 44 47 46 45 48 48 47 47 49 52 52 55 57 59 61 58 60 61 66 65 67
49 53 51 47 46 46 44 41 41 42 41 44 42 45 48 48 48 48 52 48 50 51 50 52 54 55 56 58 58 62 63 64 66 64 70 70 74 76
55 55 55 57 54 51 47 48 47 44 43 43 46 48 49 52 52 53 53 55 55 57 57 57 60 62 62 60 63 65 64 70 71 69 71 75 77 81
56 61 63 66 55 59 52 55 55 49 49 49 52 52 53 53 56 55 56 55 53 51 55 67 69 65 67 71 72 74 76 77 75 75 77 80 82 85
56 54 57 62 65 54 52 53 52 53 52 52 55 56 47 51 54 59 61 57 66 65 69 72 75 70 73 75 73 74 75 77 81 79 81 85 91 85
54 50 61 59 62 55 54 62 67 58 58 55 58 60 58 62 60 59 62 63 68 64 70 71 73 78 77 69 76 75 79 79 80 82 79 78 80 79
38 48 52 55 56 58 63 71 66 62 63 60 63 65 61 64 67 66 70 73 70 74 73 74 77 78 71 72 80 81 78 79 76 76 75 73 71 69
39 36 37 39 44 51 59 60 60 63 69 74 74 71 68 69 72 71 76 77 77 73 73 77 75 72 71 72 72 75 76 72 67 65 65 63 63 64
44 43 44 43 44 44 44 45 48 53 54 59 61 66 66 66 66 67 67 69 70 72 72 68 69 67 68 68 66 64 63 62 60 60 62 63 66 69
47 46 49 50 49 49 49 49 48 48 46 47 48 48 50 52 54 54 56 57 58 59 59 61 61 61 62 60 60 59 59 61 62 64 66 68 69 70
52 51 49 48 50 52 54 53 52 51 52 55 57 56 54 55 55 55 55 57 58 59 58 58 58 57 56 57 59 61 62 63 64 65 67 69 71 74
55 55 55 54 52 51 50 51 52 52 53 53 53 53 54 54 54 55 56 57 58 58 58 58 58 59 60 62 63 64 65 67 68 69 70 71 73 75
61 60 58 57 57 57 56 55 55 55 56 55 56 57 57 57 57 57 58 58 59 59 60 60 61 62 64 64 66 68 69 70 71 74 74 74 76 78

GFSNE_500_spd_117.txt.gz
Wind_Speed
35 34 32 31 29 28 29 27 25 27 28 31 28 28 33 33 36 33 30 31 32 40 45 44 40 38 36 37 37 35 32 32 30 29 31 30 31 31
37 37 34 33 32 28 29 29 29 29 34 34 32 34 35 36 33 36 37 34 36 36 41 47 43 40 37 37 38 36 33 34 31 32 33 32 32 34
40 39 38 35 35 31 30 31 30 28 31 37 38 38 37 36 38 35 38 40 39 37 39 39 46 38 37 38 41 35 34 35 32 33 33 34 35 36
49 45 40 39 37 34 31 33 30 28 30 33 37 38 40 43 41 38 42 39 38 38 38 35 39 37 38 41 37 36 35 33 35 35 35 34 34 35
52 55 42 42 38 36 33 34 34 26 32 34 37 36 38 38 38 38 37 31 34 36 33 33 33 34 36 38 38 34 34 35 36 37 36 35 37 39
49 52 46 44 40 37 34 35 34 27 31 30 26 33 38 40 40 35 40 36 34 35 33 34 35 35 36 36 34 34 36 37 38 38 38 38 39 40
51 49 50 47 43 39 36 35 35 31 32 33 32 33 38 45 40 35 33 33 36 36 33 31 31 31 32 33 35 38 38 39 39 40 40 39 40 42
52 50 50 49 45 41 39 35 36 35 33 34 31 32 32 35 36 34 34 30 26 26 29 31 32 35 36 37 39 41 40 40 41 41 42 41 43 45
47 43 50 48 47 42 41 38 38 37 36 34 35 30 30 29 32 31 29 25 27 30 32 35 35 36 37 36 38 41 42 43 44 43 43 45 47 51
48 47 56 52 48 45 44 41 40 40 40 34 34 35 30 33 29 28 27 34 35 32 34 36 39 39 41 40 40 42 43 44 44 47 48 50 53 57
41 55 58 50 48 48 48 44 43 41 44 40 37 37 36 34 33 33 37 41 38 39 42 41 42 46 46 47 47 45 45 47 48 51 53 57 59 63
37 48 50 49 48 50 51 50 49 45 45 45 41 42 41 42 45 43 44 40 45 45 42 45 45 48 47 49 49 50 51 53 54 55 58 58 62 64
50 47 44 52 49 55 56 58 54 51 50 47 49 46 46 49 49 48 47 44 45 48 48 53 58 56 57 56 58 58 57 59 59 63 61 62 64 69
43 51 57 44 48 57 55 56 57 57 59 52 53 52 51 52 51 49 50 54 53 54 56 58 60 60 58 60 56 60 60 62 63 64 64 69 72 75
55 55 53 55 56 55 58 61 63 64 51 59 62 62 58 56 54 54 55 56 56 57 51 58 60 60 64 58 61 58 61 64 68 72 76 81 85 77
48 56 58 57 59 53 58 57 58 59 67 64 66 67 66 60 58 58 58 53 59 60 59 57 58 64 67 68 71 69 69 71 77 83 81 80 80 81
36 38 45 52 54 56 63 68 63 63 66 70 65 69 71 60 61 63 65 68 58 59 60 63 67 66 70 73 74 77 78 80 82 78 79 78 76 78
44 43 42 42 43 44 45 50 53 57 58 61 65 66 71 67 65 67 69 65 63 65 64 65 68 74 77 79 79 79 82 82 80 77 73 71 70 74
48 47 46 45 46 47 48 49 48 45 46 47 47 50 55 59 59 64 66 66 68 69 72 74 73 75 77 79 80 77 73 71 68 68 69 69 68 68
53 54 53 52 51 49 47 49 52 54 54 54 51 49 49 50 50 50 51 53 55 59 62 64 63 64 65 65 64 65 63 63 64 65 66 65 62 61
57 57 57 57 57 55 54 53 52 52 53 56 56 54 55 57 57 55 54 53 53 55 56 57 57 58 58 59 61 62 62 63 62 60 60 61 63 64
57 58 59 59 59 59 59 58 57 57 56 56 56 56 56 56 56 55 57 58 59 59 58 57 58 59 59 59 60 61 61 60 60 61 62 65 67 69
68 66 64 62 62 64 64 64 62 62 61 61 60 60 60 59 59 59 59 58 59 59 59 60 60 61 61 62 63 64 64 64 65 65 66 67 69 71

GFSNE_500_spd_120.txt.gz
Wind_Speed
40 39 37 36 34 34 35 35 34 29 25 27 28 32 31 27 31 33 31 31 32 32 28 36 45 47 47 47 50 44 39 36 34 35 32 31 33 31
43 41 39 39 36 37 36 38 35 35 31 29 30 32 34 34 29 32 34 38 36 34 32 32 35 34 44 51 51 42 43 37 36 36 34 33 35 33
43 41 40 40 41 40 40 40 39 37 36 32 28 31 35 36 37 35 40 40 38 38 39 38 35 36 39 43 53 43 38 39 39 37 35 35 35 34
41 41 43 44 46 49 48 44 42 40 39 36 31 27 30 38 41 41 40 43 43 40 38 40 42 41 40 41 44 42 43 40 41 38 36 37 35 35
41 44 45 46 47 51 52 51 45 43 40 39 33 30 30 36 40 41 44 44 46 41 42 43 43 42 41 42 42 43 45 40 38 36 37 36 35 36
51 50 47 48 51 51 51 51 45 43 42 40 37 33 30 32 37 39 44 44 42 44 44 39 37 39 39 37 36 36 36 37 36 37 36 36 36 38
54 54 52 49 54 53 51 51 48 46 43 40 39 34 33 34 34 36 39 40 42 40 41 47 43 41 38 37 37 37 36 34 35 35 36 36 37 38
57 58 58 56 56 49 48 49 50 48 43 40 41 37 35 38 36 36 39 48 46 41 38 37 40 40 39 37 33 31 32 35 37 38 38 39 39 39
52 56 60 58 56 46 51 52 58 51 46 42 42 40 38 38 38 37 39 42 43 38 39 37 35 33 33 31 30 32 36 39 39 39 41 41 42 46
52 55 57 57 51 56 51 48 54 48 48 45 44 41 41 40 38 37 37 38 39 38 36 33 35 34 35 34 33 33 36 37 39 39 43 43 46 47
51 51 52 53 49 41 55 47 50 55 50 46 46 44 42 41 39 39 39 37 33 34 37 37 39 39 40 40 38 37 38 40 44 45 45 47 48 49
47 50 45 51 51 48 44 50 56 60 52 49 48 46 45 42 42 43 43 40 40 42 44 44 45 45 46 43 45 48 41 42 45 48 52 52 53 54
48 48 50 52 40 46 49 57 53 54 50 49 52 51 49 47 46 46 47 50 48 49 44 50 49 47 47 48 47 48 52 56 55 57 58 60 61 60
48 44 49 50 49 54 53 54 49 56 47 50 53 52 56 57 54 52 49 52 57 58 57 58 54 49 46 50 52 55 61 61 61 63 63 65 64 58
46 50 50 50 48 49 49 52 53 48 50 50 50 55 60 58 59 62 55 56 57 58 54 56 56 59 61 61 60 62 62 63 66 66 69 70 66 66
40 41 43 51 55 55 55 54 58 55 51 53 58 63 62 63 64 69 65 70 67 64 67 66 63 62 61 62 61 60 60 64 68 68 74 70 65 70
45 45 44 44 45 45 48 55 58 60 59 63 58 63 68 66 68 61 65 67 62 66 72 70 62 67 64 65 64 66 67 66 65 67 71 73 75 76
49 49 49 48 47 47 49 51 51 48 49 55 60 64 65 63 65 68 68 71 71 73 76 77 75 74 75 72 73 72 72 70 71 72 75 76 76 78
55 55 54 54 54 53 53 50 50 53 55 53 53 52 53 58 62 63 64 67 71 73 73 71 71 71 68 69 71 72 71 72 73 76 78 81 80 80
58 59 59 59 59 59 57 56 55 54 54 54 54 56 56 56 56 55 53 53 53 55 59 63 65 66 67 66 66 67 68 69 70 71 70 70 69 67
59 58 57 58 60 61 62 62 61 61 60 59 59 59 58 57 56 57 58 58 58 58 57 57 57 57 57 58 58 59 60 59 60 60 61 61 63 65
69 68 67 65 63 62 60 60 60 62 62 62 61 61 61 60 59 59 59 59 59 60 63 66 67 66 62 60 59 59 60 60 60 60 61 62 63 63
74 73 72 72 72 72 70 69 68 65 63 62 63 63 62 62 62 62 63 63 63 63 62 62 62 63 63 64 64 64 63 63 62 62 64 65 66 66

GFSNE_500_spd_126.txt.gz
Wind_Speed
45 46 47 48 46 42 42 44 45 42 39 35 33 32 34 35 37 37 35 34 34 32 32 34 36 36 37 35 35 35 43 49 46 46 46 43 44 45
45 41 43 43 39 39 43 45 44 42 43 40 38 35 34 34 37 38 38 38 35 31 32 31 34 36 37 36 34 33 33 40 47 47 49 50 50 50
41 39 42 42 45 36 43 44 47 44 46 38 41 39 37 37 39 41 40 40 39 37 35 34 33 34 36 34 34 34 34 34 40 46 48 50 51 54
41 41 42 42 42 42 43 44 42 42 45 49 40 41 42 39 39 37 44 43 41 39 38 35 38 41 38 39 40 37 37 36 36 39 40 45 45 46
42 45 42 42 45 42 45 44 45 40 42 46 45 42 43 40 45 42 44 43 43 40 40 36 36 38 37 40 41 41 41 41 41 41 43 45 45 45
47 50 50 44 41 42 42 46 48 49 46 44 42 43 44 47 45 44 43 44 45 43 41 40 38 39 41 42 42 44 45 44 42 45 46 48 50 47
51 53 57 53 51 49 48 48 48 47 46 48 49 51 51 47 41 42 44 45 46 45 44 41 41 39 41 40 42 45 47 48 48 47 48 47 45 46
53 56 58 59 54 56 55 52 53 51 43 54 57 54 56 51 50 47 51 51 46 47 47 45 45 43 40 40 38 43 43 46 48 51 50 50 46 43
55 56 58 59 60 61 59 57 52 52 54 56 58 55 55 54 54 52 50 49 48 51 50 49 48 46 45 41 39 42 46 49 49 50 50 47 46 40
56 58 58 60 59 61 59 59 57 55 55 57 57 54 53 54 55 55 57 54 51 51 53 51 47 46 46 45 46 45 45 48 47 46 48 48 44 42
62 63 64 64 63 63 63 61 61 63 62 63 63 60 62 57 54 54 52 53 51 50 51 48 48 47 47 47 48 48 46 46 47 47 46 42 40 40
57 59 60 61 64 63 64 63 65 64 62 63 62 57 54 48 47 48 49 50 53 52 51 51 50 50 49 47 46 46 46 48 43 43 45 44 45 44
39 41 46 54 56 57 59 59 60 59 58 59 62 61 59 52 52 55 55 51 56 52 53 54 52 50 51 50 45 43 43 41 45 44 46 49 50 50
42 42 44 45 43 46 53 54 55 55 55 55 53 52 53 57 56 54 55 53 55 56 59 61 57 55 51 51 50 48 45 46 46 50 53 52 53 52
47 48 48 47 46 47 47 49 53 60 66 63 55 58 60 60 57 56 55 56 63 62 61 63 60 55 53 57 56 52 53 60 57 57 59 58 61 62
55 55 54 53 53 52 52 50 50 51 50 52 57 63 58 58 58 62 62 58 64 62 60 62 60 59 55 59 61 58 64 60 61 62 64 63 65 65
63 62 61 61 60 59 58 57 56 54 53 52 53 53 53 59 59 55 54 57 62 63 66 67 68 68 72 64 64 67 65 67 66 68 68 71 68 72
63 62 62 63 62 62 61 61 60 60 60 59 57 56 55 56 56 57 59 56 54 54 57 61 65 62 60 64 68 66 69 71 68 74 75 75 73 74
67 65 65 64 64 62 62 62 63 64 63 62 62 62 60 59 57 57 55 54 57 56 57 62 61 58 58 61 64 67 70 69 68 69 71 73 72 71
74 72 71 70 70 69 68 67 66 64 64 65 65 64 64 64 63 62 60 59 58 58 57 58 58 60 63 64 63 60 58 58 59 58 59 61 61 60
78 77 76 75 73 72 71 71 71 71 70 68 67 66 64 63 63 63 64 63 62 61 61 61 61 60 60 59 58 58 59 59 59 59 57 55 53 52
82 82 80 80 79 78 76 75 74 73 73 73 72 71 70 68 67 66 64 63 62 63 64 65 65 64 63 62 62 61 60 59 59 58 58 57 57 56
89 88 87 86 86 85 84 82 81 79 78 77 77 76 74 72 71 71 70 69 66 64 63 62 63 64 65 65 65 65 63 62 61 60 60 60 60 60

GFSNE_500_spd_129.txt.gz
Wind_Speed
43 42 45 46 45 44 46 42 41 40 39 38 39 38 38 36 37 37 34 32 31 32 33 28 28 30 30 31 34 33 31 33 37 40 47 51 48 47
44 44 46 48 47 42 43 38 39 36 44 40 38 38 37 37 37 42 37 33 33 34 33 33 30 31 32 30 34 33 34 34 32 33 37 47 51 52
44 42 44 45 43 42 41 35 41 44 34 33 33 36 33 39 38 40 43 42 39 38 37 36 35 33 32 32 29 32 34 37 36 34 34 36 42 47
47 45 44 43 43 40 43 42 41 39 35 35 30 32 36 36 38 42 42 45 44 40 39 41 39 35 34 34 36 32 35 37 37 38 37 38 40 43
49 48 46 48 47 43 40 39 40 42 39 37 33 34 35 36 37 41 40 43 46 44 41 41 40 39 37 36 38 38 41 37 39 40 40 41 39 40
53 52 53 51 50 46 42 42 40 40 41 39 37 36 35 36 39 46 39 42 43 44 45 40 39 42 41 40 39 40 40 39 41 42 41 43 44 43
43 45 45 46 47 48 49 49 48 46 47 46 43 42 39 39 43 43 41 45 45 46 45 43 43 44 44 44 44 42 41 44 43 42 44 46 48 47
42 45 48 49 49 51 53 55 57 55 54 51 50 49 46 43 48 46 47 47 48 50 53 54 54 48 46 46 46 46 45 43 44 43 49 47 48 48
48 50 53 53 53 55 56 56 57 58 59 58 56 51 52 48 54 53 52 51 51 49 50 53 53 50 47 47 48 50 50 49 45 46 48 49 48 46
52 56 54 56 57 58 59 59 58 58 59 59 58 55 51 58 53 53 53 53 51 50 51 55 54 54 51 49 51 52 53 52 48 46 45 48 50 51
50 53 56 58 61 61 63 63 64 63 63 62 61 62 58 55 59 59 58 59 58 57 56 56 57 56 56 54 54 54 53 51 50 47 47 47 48 50
42 46 51 54 57 59 61 63 65 67 65 65 65 64 64 64 66 62 61 60 60 60 58 61 58 54 55 55 51 52 54 50 49 45 46 47 47 49
42 45 46 46 47 49 50 53 56 60 62 61 61 61 61 63 63 62 61 60 58 59 55 55 53 53 52 56 55 57 53 51 51 49 50 49 47 49
41 45 47 48 50 50 50 50 51 52 53 51 54 59 61 61 61 59 60 63 63 61 59 62 60 56 55 54 57 57 60 55 52 52 48 45 43 48
51 51 51 53 53 54 54 53 54 53 51 52 52 52 53 58 60 60 58 60 54 58 61 56 59 59 55 59 58 53 61 54 56 54 54 52 49 54
61 62 63 63 63 64 63 62 61 59 58 57 57 54 53 51 53 56 61 62 61 64 62 65 62 61 61 61 63 67 64 62 61 58 61 59 58 62
63 64 66 67 67 67 66 67 68 67 66 65 62 61 60 58 56 55 55 55 56 64 63 60 60 66 65 65 71 70 66 69 69 67 68 66 66 67
70 70 70 69 68 66 65 64 64 64 65 66 67 66 65 63 63 62 61 58 57 57 56 64 62 56 59 59 65 65 66 67 64 66 69 69 70 74
76 76 76 77 77 77 76 73 71 69 68 67 66 65 67 68 67 66 65 64 62 61 60 57 57 63 69 66 55 49 48 51 55 60 62 64 66 67
85 84 84 83 83 83 83 82 79 77 74 73 71 70 68 66 67 68 68 66 65 64 64 63 62 59 58 57 57 61 63 62 61 60 56 53 53 54
89 90 89 88 87 85 84 84 83 82 80 77 76 74 71 70 69 68 67 67 66 65 64 64 63 63 62 61 60 58 56 54 54 54 56 57 57 57
96 96 96 97 96 94 91 88 87 86 84 82 80 77 75 73 72 70 70 69 69 68 67 66 63 62 62 63 62 62 61 60 58 57 55 54 53 53
74 74 75 75 77 80 83 85 88 91 90 87 85 82 80 77 75 74 73 72 72 71 71 70 69 67 66 64 63 62 62 61 61 61 59 58 57 55

GFSNE_500_spd_132.txt.gz
Wind_Speed
53 52 49 47 47 46 45 45 45 41 39 37 36 39 40 38 37 35 34 32 30 29 28 26 27 30 30 29 28 28 30 31 31 30 30 30 34 39
56 55 51 49 49 49 48 48 48 44 39 37 36 41 42 44 39 37 34 36 36 33 29 29 30 33 33 32 31 30 30 31 34 33 34 35 33 33
58 56 53 53 52 51 47 48 47 47 43 41 40 38 36 28 33 34 35 38 40 37 33 33 32 33 34 34 35 33 31 32 33 35 36 36 38 37
54 56 57 56 55 50 52 49 46 47 41 34 37 36 27 28 30 30 30 35 38 39 41 36 33 35 38 36 36 36 35 32 36 35 35 36 36 35
61 64 61 62 59 53 51 49 46 43 36 40 37 39 38 34 36 36 34 32 33 37 42 42 37 31 35 38 35 35 38 36 36 39 40 39 38 39
68 66 68 70 62 60 51 55 53 51 43 43 38 37 36 35 37 38 36 35 35 34 32 39 37 41 39 35 37 34 37 39 39 40 44 43 42 42
66 72 49 45 56 42 54 47 52 55 54 48 44 44 41 40 40 42 41 41 40 40 38 37 43 46 47 41 39 37 40 44 43 44 44 45 46 45
65 68 72 75 57 61 66 55 47 52 52 50 52 52 52 50 49 50 52 52 52 49 48 41 44 48 51 49 48 49 48 46 46 47 46 47 46 50
45 51 60 49 42 46 43 47 47 50 52 54 55 57 57 57 56 54 54 57 56 57 55 52 52 51 53 54 52 51 48 47 49 49 49 48 49 50
26 29 35 36 39 43 45 51 56 57 57 56 58 58 59 58 57 56 57 58 59 58 58 59 56 56 54 52 52 52 51 53 50 50 51 52 52 53
35 37 43 49 51 55 56 56 60 62 62 61 61 62 61 61 60 61 60 60 59 60 63 65 62 61 60 61 60 58 54 56 55 57 55 55 56 54
38 39 41 42 44 46 51 56 59 61 62 63 65 66 65 64 64 64 65 64 65 66 63 64 64 67 67 64 64 61 60 57 55 57 56 53 54 54
40 42 43 44 45 46 48 49 51 53 54 55 58 57 58 60 63 63 62 63 63 63 66 67 68 70 70 68 65 62 60 58 55 56 54 53 55 56
39 41 43 45 48 49 51 51 52 54 55 55 56 57 56 56 57 58 59 61 64 65 66 67 66 66 68 67 65 62 60 58 57 58 58 56 59 60
52 51 53 55 57 59 59 59 58 57 57 57 57 57 57 57 58 58 58 58 58 56 59 61 65 65 64 65 70 69 69 67 64 63 61 59 61 64
50 54 58 60 64 66 68 69 69 69 68 66 67 66 66 65 63 62 61 61 61 60 58 58 58 62 64 64 62 63 64 64 63 63 65 61 64 64
57 58 59 60 62 62 62 63 66 67 69 71 72 72 73 73 72 71 70 69 68 66 63 61 59 58 60 63 61 61 63 67 68 68 69 69 67 64
68 70 72 73 73 73 74 75 75 75 74 72 70 71 72 73 74 73 73 74 74 72 71 68 66 64 62 62 58 60 64 67 64 67 71 72 68 69
78 79 81 82 82 82 83 83 82 82 82 82 81 81 78 76 75 73 72 72 72 74 74 73 71 70 68 66 64 62 60 59 66 62 58 61 65 66
85 86 87 89 90 89 89 88 89 89 89 89 89 88 87 85 82 80 78 75 72 71 71 71 72 71 70 68 67 67 64 63 60 59 64 62 57 53
97 98 99 98 97 97 96 95 94 93 94 94 93 91 89 88 85 83 82 80 78 75 73 72 71 69 68 67 67 67 67 66 65 62 61 57 59 63
103 101 97 91 85 80 77 75 72 73 77 82 88 91 92 90 88 85 82 80 79 78 76 74 74 73 71 68 66 65 64 64 65 64 62 60 58 57
86 82 78 76 73 70 67 64 61 60 59 61 65 69 74 79 84 87 86 83 80 77 76 75 75 73 73 72 70 68 66 65 63 62 61 61 61 60

GFSNE_500_spd_135.txt.gz
Wind_Speed
60 57 54 51 51 48 48 45 43 42 39 36 35 34 38 38 34 37 38 38 38 37 36 32 30 29 28 25 26 26 26 25 24 25 26 31 29 29
62 59 56 53 53 51 51 49 49 47 45 39 38 39 40 41 36 34 37 38 44 39 36 35 32 31 32 31 31 30 29 28 28 26 27 30 33 34
62 59 58 56 57 54 52 52 51 51 48 44 43 43 43 42 39 37 32 34 34 39 38 38 36 36 35 35 34 31 31 32 32 32 29 29 32 34
71 67 64 60 59 53 52 53 51 53 51 48 53 48 53 47 38 36 30 25 30 28 30 31 35 37 34 37 37 35 35 35 35 33 32 31 32 35
72 72 65 60 57 53 53 56 55 55 55 47 36 46 40 41 36 36 32 33 31 33 35 34 32 34 38 39 39 35 29 31 33 32 33 35 36 36
62 60 67 62 62 58 57 59 63 59 59 55 54 45 42 39 41 43 41 39 37 39 40 38 37 35 35 35 40 39 37 34 33 34 34 34 37 39
64 72 72 68 59 63 66 53 59 70 59 54 44 48 51 52 51 45 38 37 38 40 41 43 41 40 40 40 39 41 41 42 40 39 38 39 40 43
56 56 61 58 57 51 73 62 64 46 55 54 56 51 53 56 57 51 47 45 47 48 48 49 50 50 49 47 49 46 46 47 47 47 50 49 45 46
45 46 39 51 45 64 55 58 55 59 57 54 54 57 50 48 50 51 53 54 56 57 57 58 59 58 59 57 50 51 54 54 54 52 50 51 51 50
34 34 36 39 40 40 56 43 51 58 44 47 50 51 51 51 53 55 57 58 59 60 61 60 61 58 59 59 58 57 60 60 60 58 54 53 54 55
24 29 35 36 31 40 35 34 35 38 47 45 46 52 54 57 59 60 59 59 60 60 61 62 60 62 63 62 62 65 63 64 64 65 65 60 57 58
28 28 28 31 35 37 38 37 40 43 48 54 56 56 62 63 61 61 63 62 62 63 61 62 65 66 67 65 65 65 69 69 71 67 68 66 63 65
24 27 32 34 36 38 40 40 41 43 47 51 53 56 59 57 58 62 62 64 63 64 63 65 67 68 70 69 67 66 66 68 70 73 74 73 69 67
35 35 37 40 42 46 47 48 48 48 49 51 53 55 57 58 58 60 61 61 62 61 63 64 63 64 65 68 72 71 69 69 69 72 73 70 70 70
46 48 50 52 53 56 56 57 59 60 61 61 61 61 61 62 63 63 62 62 63 63 64 64 63 61 60 60 61 64 67 69 72 72 73 73 72 70
53 54 54 57 57 59 61 62 61 63 65 69 71 72 73 73 72 73 73 72 70 69 67 67 65 63 61 61 61 60 61 62 62 64 67 69 69 72
52 54 55 56 58 59 61 62 64 66 68 68 67 68 70 72 75 76 78 79 81 80 78 77 75 73 70 68 66 63 62 61 61 62 65 67 67 65
59 61 62 65 67 69 71 73 75 75 76 77 78 78 79 78 78 80 79 79 79 80 81 81 80 80 79 76 74 70 68 66 65 65 64 64 65 65
66 69 71 72 73 76 77 78 80 82 83 85 86 87 87 87 86 86 86 88 87 84 82 81 79 79 78 77 78 77 76 74 72 70 68 68 65 63
76 77 80 82 85 86 87 88 89 90 90 91 92 92 92 93 94 94 93 93 91 90 89 88 86 83 80 77 76 75 75 76 76 74 74 73 70 69
89 92 93 94 95 97 98 99 99 99 100 99 98 98 97 96 95 96 96 97 97 95 93 93 90 88 85 83 80 78 76 75 74 73 72 72 72 70
96 99 102 103 103 98 93 88 83 80 78 74 72 73 74 75 78 83 87 91 95 96 95 94 91 88 86 85 83 82 79 77 75 73 71 70 68 67
102 102 97 90 84 79 75 72 70 68 65 63 60 59 59 60 62 65 69 73 78 82 86 89 90 87 85 83 82 81 80 78 77 75 72 70 68 66

GFSNE_500_spd_138.txt.gz
Wind_Speed
52 76 64 60 57 57 55 52 50 50 44 37 35 35 34 33 33 32 32 32 33 34 35 35 32 31 31 30 29 28 26 24 24 24 25 25 23 24
61 72 67 63 61 61 58 57 57 52 49 41 38 38 38 37 35 37 37 37 36 35 37 37 38 36 33 31 30 30 31 30 28 27 26 27 28 26
60 47 53 70 65 61 60 59 58 58 54 43 42 43 42 40 39 43 41 39 37 38 39 38 36 37 36 36 34 32 34 34 32 30 29 27 29 30
62 63 51 61 68 63 60 60 59 57 53 48 45 45 46 44 43 44 44 45 40 41 41 32 29 33 37 36 36 36 36 35 35 34 34 33 29 31
65 69 70 49 63 61 61 59 59 56 53 52 48 48 52 50 48 48 47 45 48 42 39 33 31 31 33 33 34 35 37 39 38 36 33 33 33 30
69 72 45 48 54 64 62 62 64 58 53 54 52 51 55 55 51 45 41 45 39 41 38 37 37 36 36 36 35 33 36 34 38 38 37 34 34 34
68 73 71 73 57 64 56 69 56 58 60 58 55 59 58 73 55 55 50 41 42 44 47 45 43 40 41 43 41 39 39 38 36 39 43 43 43 40
45 58 61 65 60 55 63 69 77 56 59 60 58 65 51 58 66 59 62 63 52 50 50 50 46 43 45 46 47 48 48 46 44 45 47 47 44 43
30 31 53 53 66 51 62 59 65 62 71 59 66 63 54 44 53 51 53 45 56 58 56 50 50 51 54 54 54 54 56 55 55 54 52 53 50 49
39 41 39 43 40 47 48 65 60 72 64 71 61 63 64 60 58 59 61 61 63 61 66 67 55 57 59 60 61 62 62 63 63 60 59 58 59 61
35 25 30 33 36 38 37 41 50 52 54 61 55 62 52 55 58 57 58 64 55 58 56 58 60 60 62 64 66 67 67 66 66 65 64 62 61 63
13 23 26 31 31 30 29 34 42 39 39 43 48 55 57 53 52 55 55 61 54 55 59 59 60 62 62 61 64 67 67 68 67 66 66 68 67 69
16 18 20 22 25 27 29 32 34 34 35 35 36 39 43 46 48 50 52 53 55 54 54 59 63 65 65 64 64 64 66 70 69 70 70 73 72 75
24 28 29 30 32 34 37 38 40 42 42 41 44 46 46 46 46 49 52 55 58 60 63 63 62 64 66 69 69 69 70 71 71 73 75 75 74 77
30 33 36 39 43 45 47 47 47 48 50 52 53 55 54 56 59 60 60 61 61 62 64 66 68 67 67 66 68 70 69 70 71 73 73 70 71 74
43 45 46 48 50 51 52 52 52 53 55 57 58 59 61 62 63 65 69 72 71 71 72 71 72 73 72 73 72 71 71 71 70 71 71 69 69 67
48 52 55 57 56 56 55 55 55 56 58 59 61 63 65 66 67 68 69 71 75 77 78 80 80 80 81 81 80 80 80 78 76 75 73 72 71 69
48 50 52 54 56 59 62 63 64 65 67 69 70 71 72 73 74 77 77 77 78 79 80 81 84 87 88 89 89 88 87 86 85 84 81 79 77 75
57 58 59 61 62 62 64 66 69 71 74 75 77 78 79 80 81 83 85 86 88 88 89 89 90 91 91 90 89 89 88 88 89 88 88 86 83 83
65 66 67 70 71 74 75 77 79 80 82 84 86 86 87 88 89 90 91 93 95 96 96 98 99 99 98 98 98 96 93 92 90 87 84 84 83 81
74 77 79 81 82 84 86 87 89 91 93 94 95 95 95 95 96 97 97 97 98 100 102 103 105 105 106 105 103 101 100 97 95 92 89 85 82 79
84 86 88 90 92 94 96 95 93 88 82 79 77 78 79 79 80 82 83 83 86 88 90 94 97 100 103 105 104 103 102 100 98 94 92 89 85 82
88 91 95 97 98 97 94 89 84 79 75 71 69 67 64 63 62 63 65 66 68 70 72 75 78 81 85 89 93 96 96 95 92 90 87 85 84 83

GFSNE_500_spd_141.txt.gz
Wind_Speed
72 78 74 53 62 65 63 61 58 58 54 49 46 42 41 41 39 39 35 33 31 30 29 29 29 32 32 32 34 32 31 30 28 26 24 24 24 24
62 72 73 64 44 60 60 64 63 61 56 52 49 46 46 44 43 41 38 37 36 34 33 32 32 34 36 38 41 39 35 33 31 31 30 29 27 27
54 68 72 65 55 36 55 65 63 62 60 56 53 50 49 47 45 45 42 41 41 38 36 34 33 35 36 37 41 42 37 34 33 33 33 33 31 31
53 60 67 78 67 67 48 61 52 57 64 60 58 56 55 52 51 49 47 45 43 42 41 38 39 38 38 37 42 38 38 38 36 37 36 37 35 33
38 52 65 67 68 64 58 59 59 55 52 60 61 58 59 54 54 53 51 49 46 45 47 47 42 41 41 38 38 37 34 34 35 36 37 37 37 37
33 45 59 62 60 65 60 42 51 68 59 59 52 64 66 62 61 58 54 53 51 49 48 50 46 45 46 38 39 38 37 36 35 34 33 33 35 38
26 35 55 56 71 63 62 58 42 58 62 59 57 57 61 59 57 57 57 56 57 53 52 42 48 45 44 43 45 43 42 41 40 39 38 35 35 35
23 27 36 49 53 66 65 65 51 47 47 51 60 57 67 62 60 64 61 60 59 60 63 64 48 48 48 49 51 51 48 47 46 45 44 44 43 41
33 29 38 39 47 52 64 68 67 68 62 48 61 61 48 64 58 61 64 55 62 65 66 61 60 59 60 55 53 53 52 52 51 49 49 51 51 50
24 35 36 33 38 43 50 56 64 57 57 57 56 60 63 64 60 57 58 62 64 59 68 65 66 64 58 62 62 61 61 59 54 53 55 58 59 57
18 22 28 27 28 24 33 40 47 54 56 58 60 64 63 61 70 73 71 67 62 66 62 63 60 66 63 70 69 64 64 63 62 62 62 64 65 65
3 4 4 2 18 25 32 31 36 40 49 50 56 60 61 58 61 62 70 70 68 67 66 67 65 65 65 73 71 70 69 70 70 67 65 65 66 69
7 6 7 10 13 13 15 18 22 29 28 30 33 37 42 49 60 60 60 61 63 62 66 70 69 69 70 68 73 76 72 68 70 71 70 71 71 73
17 17 15 14 16 19 23 26 28 30 33 35 37 40 40 41 40 40 43 48 53 57 58 57 58 63 68 68 56 63 67 68 69 69 69 71 72 72
23 24 25 26 26 28 30 34 38 41 40 43 46 47 47 48 48 48 49 51 53 53 52 53 53 55 59 62 62 64 65 68 70 70 71 71 72 74
33 35 37 38 38 39 42 43 44 45 49 51 50 52 53 53 53 56 58 59 59 61 63 63 62 63 63 64 64 66 70 72 72 74 76 77 79 81
40 42 45 47 48 50 51 53 53 53 53 53 53 54 55 57 60 61 62 64 67 69 70 71 71 73 75 75 75 74 75 75 77 79 81 82 84 83
46 48 50 51 53 54 55 57 58 59 60 60 61 62 62 63 64 65 67 68 69 71 74 75 78 79 79 80 82 83 84 84 86 87 87 88 89 90
52 53 55 56 56 56 58 59 61 63 65 67 68 69 71 72 72 73 74 75 77 77 79 80 82 85 86 87 88 88 90 92 93 93 94 95 96 97
59 60 61 62 61 61 63 64 66 67 70 71 72 74 76 78 80 81 82 83 84 85 87 88 89 91 91 93 94 96 97 97 98 99 100 101 103 103
64 66 66 67 69 71 73 74 76 78 79 79 80 82 83 85 86 87 88 89 89 91 92 95 96 98 100 101 101 102 104 105 106 106 107 107 107 106
67 68 70 74 77 79 80 82 85 86 87 89 89 89 88 87 87 86 87 88 90 92 93 93 96 99 101 103 105 106 108 111 112 114 114 113 112 109
72 75 78 81 83 85 88 89 86 85 81 78 74 72 72 72 72 73 74 76 78 80 80 81 85 87 89 91 93 95 97 100 103 104 104 101 99 99

GFSNE_500_spd_144.txt.gz
Wind_Speed
55 58 54 57 64 69 68 66 67 61 64 59 61 54 50 49 47 46 45 44 41 41 39 38 36 34 34 32 30 29 30 30 30 29 29 27 26 27
52 54 48 49 51 63 58 67 65 67 63 62 62 58 55 54 50 51 50 48 45 42 41 40 39 37 35 34 34 34 34 36 35 34 33 32 32 32
48 50 50 49 49 63 62 64 67 66 60 70 65 63 60 59 56 54 54 51 48 46 44 44 43 41 40 38 39 38 37 38 39 40 38 38 37 37
45 46 49 52 47 57 64 61 78 56 62 66 68 65 64 61 59 56 57 56 53 51 49 49 48 46 44 42 41 41 42 39 39 40 42 42 39 40
36 42 45 48 46 49 62 64 63 57 62 61 49 69 69 67 65 63 63 59 58 57 55 53 51 50 48 45 45 46 45 43 40 39 42 45 44 42
27 30 32 31 41 48 55 61 65 64 56 57 61 61 70 62 68 65 65 65 62 59 56 56 54 52 51 50 48 48 50 47 44 42 42 43 42 42
25 27 29 28 36 38 50 59 67 60 59 46 65 56 65 65 65 65 68 67 64 63 59 59 56 56 55 53 54 51 52 56 51 46 44 43 42 42
29 30 32 36 34 32 41 55 53 55 57 62 55 51 68 58 65 61 60 65 67 67 66 63 61 60 59 55 55 53 51 51 53 50 48 46 46 45
30 38 38 32 35 27 37 47 46 60 65 76 61 54 61 67 59 53 67 70 69 70 70 68 67 64 63 60 58 58 53 52 53 53 52 52 53 52
19 25 33 40 36 32 41 38 35 50 61 56 58 63 62 51 60 51 51 60 65 72 72 72 71 69 65 61 61 67 69 67 60 59 58 59 59 60
11 23 27 37 31 25 39 37 50 50 54 56 55 64 65 64 68 62 52 54 62 69 75 78 73 69 60 62 58 60 67 67 68 70 70 65 62 61
16 10 6 3 16 35 33 39 35 42 49 53 54 56 56 60 62 59 60 62 67 71 64 68 62 66 71 68 71 66 73 75 71 74 76 73 71 68
7 10 12 13 15 14 13 10 16 24 32 35 43 50 51 57 60 64 65 67 64 70 77 69 72 75 76 79 76 72 73 75 84 77 77 78 78 73
16 13 15 16 16 17 19 19 21 21 22 24 26 26 28 31 34 41 50 58 59 64 67 72 75 75 74 78 79 81 78 77 77 79 78 78 81 81
21 21 21 20 23 24 25 26 28 30 31 32 33 35 37 38 39 43 45 45 47 46 49 57 69 65 72 76 80 80 79 81 85 87 86 84 85 87
29 30 30 31 31 32 33 35 37 39 41 43 45 45 45 45 48 50 53 51 53 54 54 54 54 52 55 59 65 66 75 79 78 83 80 91 90 89
36 38 39 41 42 42 42 43 45 47 49 51 53 55 55 55 55 56 55 57 60 59 59 61 63 64 64 62 63 62 62 62 62 66 71 73 77 77
39 41 43 45 47 49 51 53 54 57 59 61 61 61 62 62 62 62 62 61 62 63 65 67 68 71 72 74 74 73 73 74 75 75 76 75 75 75
45 46 48 50 51 53 56 59 62 62 63 64 64 65 65 65 65 67 68 69 69 70 71 72 72 74 75 77 80 81 82 84 85 86 86 86 85 87
51 52 54 56 59 61 63 65 66 68 69 69 69 68 68 69 71 72 73 74 76 77 78 81 82 81 83 83 83 86 87 87 89 91 93 94 95 95
55 57 59 62 65 67 69 70 72 72 73 73 73 74 74 76 77 78 78 80 80 81 83 87 88 89 90 91 92 92 94 95 97 96 97 98 99 100
58 61 63 66 68 70 72 73 74 75 76 77 78 80 82 82 83 84 85 86 87 87 87 90 92 92 96 97 98 100 101 103 105 106 107 107 107 108
64 66 68 70 72 74 76 77 78 80 82 84 86 88 89 90 90 89 88 87 85 85 87 89 92 93 96 100 101 102 104 106 108 111 112 114 114 115

GFSNE_500_spd_147.txt.gz
Wind_Speed
54 53 58 55 58 60 55 58 65 66 75 51 53 55 56 58 55 53 53 51 48 47 46 44 43 41 41 40 39 37 35 33 33 32 32 31 29 28
57 52 54 59 54 59 55 55 62 64 73 72 70 53 61 63 58 57 56 55 53 51 50 48 46 44 42 41 40 39 38 36 35 33 33 31 32 31
49 48 51 52 57 51 54 53 60 58 66 67 59 61 67 69 64 62 59 61 58 55 52 51 49 47 45 45 44 43 41 39 38 37 37 38 37 38
42 43 48 50 47 49 48 47 53 54 59 56 60 64 51 70 68 65 62 63 61 58 56 54 52 51 49 48 47 46 45 43 42 40 40 40 41 41
38 38 42 45 40 47 47 43 49 50 57 56 59 57 52 41 70 70 69 69 66 63 63 60 54 53 53 52 52 51 49 47 45 45 44 44 44 42
34 35 37 40 40 43 47 47 45 43 55 53 55 59 61 68 40 55 76 73 72 68 66 59 57 55 57 57 56 55 52 50 51 50 48 47 47 47
25 29 30 33 38 41 44 45 43 44 47 63 66 63 61 56 37 53 64 75 74 74 70 65 61 61 63 61 60 60 58 56 55 55 54 50 51 49
20 25 27 28 28 32 31 33 42 42 47 52 61 67 53 58 63 43 43 60 75 73 74 71 70 68 65 65 66 64 62 61 59 58 56 56 55 57
22 25 28 30 31 34 38 39 37 41 42 42 52 57 61 67 62 47 46 51 64 70 70 66 69 73 72 69 66 67 66 65 62 60 57 56 57 57
18 24 31 35 36 39 37 40 39 31 31 48 44 52 52 53 58 62 57 48 48 57 64 65 58 65 72 71 72 73 73 72 68 65 62 60 55 55
13 13 14 27 33 41 40 35 37 46 32 37 50 47 56 49 63 62 57 51 62 54 57 56 61 72 72 70 75 76 76 77 77 70 67 68 65 65
8 3 6 8 9 15 26 34 39 45 43 48 49 57 56 60 68 60 67 68 71 67 61 70 55 62 64 67 66 73 78 78 76 67 69 71 71 73
8 9 11 12 13 12 14 7 8 4 31 38 48 51 53 53 57 62 59 58 63 69 63 64 65 55 60 61 66 75 80 81 79 77 72 74 70 70
13 13 15 14 13 14 13 14 17 17 16 15 14 19 22 27 37 48 50 48 59 65 67 69 72 67 74 74 75 78 77 84 84 82 80 78 77 75
18 18 19 21 22 22 20 21 20 20 20 22 23 24 25 27 28 30 32 34 35 40 45 51 65 68 71 74 75 82 83 80 83 86 78 82 81 83
24 25 25 25 27 27 28 29 29 30 30 31 32 32 33 35 38 40 42 43 44 46 47 51 52 49 52 51 58 68 76 82 86 86 87 89 88 86
31 32 35 35 34 35 35 35 36 37 38 39 40 41 42 44 45 47 49 51 52 54 54 55 57 58 59 59 58 58 57 63 71 77 86 86 87 88
35 37 38 40 41 42 43 44 44 45 45 46 47 49 50 52 53 55 57 58 60 61 62 63 63 63 64 66 67 67 68 69 68 68 68 70 75 83
39 40 41 43 44 45 46 48 49 51 52 53 54 56 58 60 62 64 66 67 67 67 67 67 68 69 68 69 70 74 75 75 76 76 76 76 75 74
41 43 45 47 49 50 51 52 54 55 56 59 61 63 65 66 67 69 70 70 71 73 73 74 74 74 75 76 75 77 79 80 80 81 82 84 85 85
44 47 49 51 53 54 56 58 61 62 64 67 68 70 71 73 74 76 76 76 76 77 77 78 80 81 81 82 82 84 85 87 87 88 88 89 91 91
50 51 52 54 56 58 60 63 65 68 70 72 75 77 79 81 82 82 83 83 82 83 84 84 85 86 87 88 89 91 92 95 96 95 97 96 97 97
54 56 58 60 62 65 68 70 73 76 77 79 82 84 85 85 85 86 87 87 88 88 89 89 90 92 92 93 94 95 97 100 101 103 104 104 106 106

GFSNE_500_spd_150.txt.gz
Wind_Speed
53 54 54 56 53 50 53 53 56 55 54 54 56 52 61 61 51 60 58 54 52 51 51 49 48 47 45 44 42 40 39 37 36 35 34 34 33 32
53 50 53 54 51 47 47 48 50 51 54 53 57 58 58 59 49 39 57 55 53 54 55 53 52 51 49 47 45 42 42 40 39 38 36 35 35 33
46 52 50 55 53 49 49 52 50 48 53 51 58 54 64 58 71 63 59 57 56 56 57 57 56 54 52 50 48 45 44 44 42 41 39 37 36 35
32 35 47 49 59 52 49 51 59 56 55 48 53 55 54 57 56 53 50 57 58 60 60 60 60 58 56 54 51 50 49 47 45 43 41 40 39 38
23 27 31 37 44 39 52 56 42 44 45 51 50 51 52 54 49 52 63 62 62 69 66 66 65 63 61 59 56 53 53 51 48 46 45 43 42 41
14 18 28 38 42 48 50 50 47 48 50 50 48 47 52 47 60 67 66 65 54 65 71 72 72 69 65 60 60 56 53 52 50 50 48 46 46 46
14 29 33 35 34 39 42 44 43 45 48 47 44 47 56 55 61 53 59 65 53 43 70 70 75 70 68 68 62 58 58 58 56 54 54 53 53 51
19 25 32 33 33 36 38 43 43 43 47 47 44 43 56 59 56 63 65 62 64 56 56 66 80 77 72 70 69 66 65 64 62 59 60 59 57 56
11 14 22 30 35 36 40 41 43 42 45 47 45 44 45 62 64 66 55 63 56 47 44 60 57 74 75 74 72 70 68 65 63 64 64 63 62 60
14 16 21 24 29 32 34 34 38 39 39 40 41 45 46 46 56 61 62 58 58 51 45 48 51 52 61 70 74 76 75 70 67 68 68 66 65 65
6 9 15 22 30 35 35 36 39 42 43 44 41 43 46 40 43 51 56 44 50 64 59 51 51 51 52 62 60 63 72 73 73 75 71 69 70 71
12 7 3 3 8 15 27 35 41 43 44 45 45 43 47 47 42 46 57 59 55 60 60 59 63 48 53 60 53 46 58 63 69 73 77 77 76 78
13 14 12 13 11 10 5 7 15 29 24 35 35 42 48 53 48 44 54 60 58 54 63 68 67 61 66 61 56 60 56 58 62 65 69 72 73 74
16 15 14 14 13 13 15 14 13 9 13 19 26 24 32 36 47 50 58 61 63 62 66 62 57 58 63 72 67 69 69 69 63 65 68 72 74 77
21 20 20 20 20 19 18 18 17 17 20 19 20 18 18 17 17 19 25 28 45 47 44 45 53 61 60 67 71 69 69 71 67 65 69 69 70 73
27 26 26 25 25 25 25 25 25 25 25 25 25 26 27 28 27 28 28 30 30 31 32 33 34 34 37 37 37 47 62 71 76 73 75 77 79 83
33 34 32 32 31 31 32 34 34 33 33 33 34 34 35 35 35 35 37 38 38 40 41 41 42 44 44 45 46 48 48 50 50 55 69 76 82 84
42 41 40 39 39 40 39 40 40 40 40 40 41 42 42 43 43 43 44 45 46 48 48 49 50 50 51 54 55 56 57 57 59 60 60 60 66 73
37 38 38 38 38 38 40 42 43 44 45 45 46 47 49 49 49 50 51 52 53 53 55 57 58 58 59 61 63 64 63 64 64 64 65 68 71 71
37 38 39 41 42 42 44 44 45 47 49 49 50 51 52 52 54 56 57 58 60 61 63 65 67 67 68 68 68 71 73 72 71 71 69 73 75 76
39 40 41 43 44 47 49 50 51 52 52 53 55 57 59 59 59 60 62 64 66 68 69 71 72 74 75 75 76 76 76 79 80 79 78 79 81 83
43 44 45 47 49 51 53 55 57 58 60 60 61 63 65 67 68 70 71 72 74 75 76 77 78 80 81 82 82 82 82 84 85 85 86 86 86 87
48 49 50 51 53 55 58 60 63 65 67 67 68 72 73 75 76 78 80 81 83 84 85 85 85 86 86 86 85 86 87 88 89 90 89 91 93 94